AUA101X LOWI-LOWW

Flight info

Callsign AUA101X
Flight time 0h 58m
Altitude 27000
Route RTT DCT NEMAL NEMAL2W
Aircraft A320/M-SDE3FGHIRWY/LB1

Departure

Time 2026-05-06 18:30
Airport Innsbruck Airport (LOWI)

Arrival

Time 2026-05-06 19:29
Airport Vienna International Airport (LOWW)
Time Latitude Longitude Altitude Speed Heading
2026-05-06 18:06 47.25842 11.35228 1907 ft 0 kts 171°
2026-05-06 18:22 47.25863 11.35221 1902 ft 4 kts 160°
2026-05-06 18:23 47.25885 11.35203 1894 ft 4 kts 124°
2026-05-06 18:23 47.25891 11.35178 1892 ft 0 kts 81°
2026-05-06 18:26 47.25894 11.35205 1900 ft 6 kts 81°
2026-05-06 18:26 47.25907 11.35278 1907 ft 8 kts 60°
2026-05-06 18:26 47.25949 11.35284 1904 ft 5 kts 352°
2026-05-06 18:26 47.25958 11.35282 1907 ft 0 kts 351°
2026-05-06 18:27 47.25965 11.35281 1907 ft 0 kts 351°
2026-05-06 18:28 47.25981 11.35277 1901 ft 10 kts 351°
2026-05-06 18:29 47.26091 11.35269 1901 ft 16 kts 29°
2026-05-06 18:29 47.26132 11.35451 1903 ft 24 kts 87°
2026-05-06 18:29 47.26108 11.35653 1903 ft 20 kts 83°
2026-05-06 18:29 47.26151 11.35724 1906 ft 2 kts 323°
2026-05-06 18:30 47.26150 11.35596 1903 ft 29 kts 258°
2026-05-06 18:30 47.26060 11.34765 1908 ft 131 kts 261°
2026-05-06 18:30 47.25879 11.33148 2259 ft 176 kts 257°
2026-05-06 18:30 47.25765 11.31290 3218 ft 187 kts 270°
2026-05-06 18:31 47.25843 11.29385 4270 ft 185 kts 274°
2026-05-06 18:31 47.25986 11.27526 5361 ft 180 kts 276°
2026-05-06 18:31 47.25992 11.25715 6357 ft 176 kts 253°
2026-05-06 18:31 47.25354 11.24263 7235 ft 170 kts 213°
2026-05-06 18:32 47.24288 11.23641 8122 ft 166 kts 185°
2026-05-06 18:32 47.23151 11.23908 8929 ft 170 kts 157°
2026-05-06 18:32 47.22237 11.25030 9810 ft 178 kts 128°
2026-05-06 18:32 47.21846 11.26825 10522 ft 196 kts 94°
2026-05-06 18:33 47.22244 11.28814 11216 ft 212 kts 67°
2026-05-06 18:33 47.22942 11.30778 11709 ft 222 kts 66°
2026-05-06 18:33 47.23670 11.32781 11851 ft 224 kts 65°
2026-05-06 18:33 47.24420 11.34851 12476 ft 230 kts 64°
2026-05-06 18:34 47.24909 11.36222 13131 ft 227 kts 68°
2026-05-06 18:34 47.25509 11.38393 13868 ft 235 kts 74°
2026-05-06 18:34 47.26053 11.40794 14291 ft 259 kts 76°
2026-05-06 18:34 47.26611 11.43455 14756 ft 284 kts 76°
2026-05-06 18:35 47.27209 11.46359 15220 ft 309 kts 76°
2026-05-06 18:35 47.27866 11.49510 15650 ft 335 kts 76°
2026-05-06 18:35 47.28588 11.52929 15783 ft 361 kts 75°
2026-05-06 18:35 47.29354 11.56499 15806 ft 369 kts 75°
2026-05-06 18:36 47.30137 11.60108 15810 ft 370 kts 75°
2026-05-06 18:36 47.30933 11.63719 15810 ft 371 kts 72°
2026-05-06 18:36 47.32118 11.67115 15812 ft 374 kts 60°
2026-05-06 18:36 47.33475 11.70393 15808 ft 376 kts 60°
2026-05-06 18:37 47.34836 11.73701 15814 ft 378 kts 60°
2026-05-06 18:37 47.36212 11.77066 15814 ft 378 kts 60°
2026-05-06 18:37 47.37567 11.80387 15820 ft 379 kts 60°
2026-05-06 18:37 47.38926 11.83727 15821 ft 381 kts 61°
2026-05-06 18:38 47.40282 11.87067 15819 ft 378 kts 60°
2026-05-06 18:38 47.41644 11.90426 16364 ft 384 kts 60°
2026-05-06 18:38 47.43012 11.93829 17431 ft 385 kts 63°
2026-05-06 18:38 47.44199 11.97392 18337 ft 389 kts 67°
2026-05-06 18:39 47.45366 12.01021 19136 ft 394 kts 67°
2026-05-06 18:39 47.46545 12.04706 19893 ft 399 kts 67°
2026-05-06 18:39 47.47737 12.08445 20630 ft 405 kts 67°
2026-05-06 18:40 47.50081 12.16135 22063 ft 413 kts 76°
2026-05-06 18:40 47.50729 12.20277 22749 ft 416 kts 82°
2026-05-06 18:40 47.51320 12.24498 23442 ft 421 kts 82°
2026-05-06 18:40 47.51905 12.28767 24007 ft 427 kts 83°
2026-05-06 18:41 47.52491 12.33097 24588 ft 432 kts 83°
2026-05-06 18:41 47.53079 12.37479 25171 ft 436 kts 83°
2026-05-06 18:41 47.53675 12.41907 25737 ft 441 kts 83°
2026-05-06 18:41 47.54280 12.46390 26295 ft 446 kts 83°
2026-05-06 18:42 47.54889 12.50904 26723 ft 449 kts 83°
2026-05-06 18:42 47.55501 12.55423 26825 ft 444 kts 83°
2026-05-06 18:42 47.56101 12.59797 26838 ft 423 kts 82°
2026-05-06 18:42 47.56682 12.64060 26815 ft 430 kts 83°
2026-05-06 18:43 47.57270 12.68462 26848 ft 440 kts 83°
2026-05-06 18:43 47.57861 12.72929 26846 ft 444 kts 83°
2026-05-06 18:43 47.58456 12.77416 26842 ft 445 kts 83°
2026-05-06 18:43 47.59054 12.81912 26844 ft 445 kts 83°
2026-05-06 18:44 47.59653 12.86414 26844 ft 445 kts 83°
2026-05-06 18:44 47.60250 12.90909 26847 ft 444 kts 83°
2026-05-06 18:44 47.60843 12.95401 26842 ft 444 kts 83°
2026-05-06 18:44 47.61434 12.99891 26844 ft 445 kts 83°
2026-05-06 18:45 47.62021 13.04390 26840 ft 444 kts 83°
2026-05-06 18:45 47.62607 13.08887 26837 ft 444 kts 83°
2026-05-06 18:45 47.63190 13.13380 26810 ft 444 kts 83°
2026-05-06 18:45 47.63772 13.17874 26820 ft 444 kts 83°
2026-05-06 18:46 47.64353 13.22378 26803 ft 444 kts 83°
2026-05-06 18:46 47.64932 13.26876 26816 ft 445 kts 84°
2026-05-06 18:46 47.65509 13.31385 26815 ft 445 kts 84°
2026-05-06 18:46 47.66084 13.35892 26825 ft 445 kts 83°
2026-05-06 18:47 47.66656 13.40399 26802 ft 444 kts 83°
2026-05-06 18:47 47.67217 13.44838 26808 ft 444 kts 83°
2026-05-06 18:47 47.67791 13.49404 26801 ft 444 kts 83°
2026-05-06 18:47 47.68350 13.53849 26792 ft 444 kts 83°
2026-05-06 18:48 47.68915 13.58355 26762 ft 444 kts 84°
2026-05-06 18:48 47.69479 13.62854 26792 ft 443 kts 84°
2026-05-06 18:48 47.70041 13.67355 26794 ft 444 kts 83°
2026-05-06 18:48 47.70602 13.71853 26790 ft 444 kts 84°
2026-05-06 18:49 47.71163 13.76364 26782 ft 444 kts 84°
2026-05-06 18:49 47.71722 13.80876 26625 ft 444 kts 84°
2026-05-06 18:49 47.72277 13.85382 26357 ft 444 kts 84°
2026-05-06 18:49 47.72829 13.89889 26078 ft 442 kts 84°
2026-05-06 18:50 47.73376 13.94375 25824 ft 440 kts 84°
2026-05-06 18:50 47.73918 13.98837 25575 ft 438 kts 84°
2026-05-06 18:50 47.74459 14.03285 25301 ft 435 kts 83°
2026-05-06 18:50 47.74994 14.07692 25063 ft 432 kts 83°
2026-05-06 18:51 47.75522 14.12068 24810 ft 429 kts 83°
2026-05-06 18:51 47.76048 14.16426 24570 ft 427 kts 84°
2026-05-06 18:51 47.76570 14.20753 24330 ft 425 kts 84°
2026-05-06 18:51 47.77086 14.25074 24094 ft 423 kts 84°
2026-05-06 18:52 47.77594 14.29371 23860 ft 422 kts 84°
2026-05-06 18:52 47.78098 14.33655 23623 ft 419 kts 84°
2026-05-06 18:52 47.78598 14.37896 23395 ft 416 kts 84°
2026-05-06 18:52 47.79096 14.42132 23138 ft 415 kts 84°
2026-05-06 18:53 47.79595 14.46354 22861 ft 414 kts 84°
2026-05-06 18:53 47.80090 14.50555 22565 ft 411 kts 83°
2026-05-06 18:53 47.80579 14.54737 22296 ft 409 kts 84°
2026-05-06 18:53 47.81063 14.58897 22012 ft 408 kts 84°
2026-05-06 18:54 47.81542 14.63041 21745 ft 406 kts 84°
2026-05-06 18:54 47.82015 14.67170 21499 ft 404 kts 84°
2026-05-06 18:54 47.82487 14.71280 21237 ft 402 kts 84°
2026-05-06 18:54 47.82957 14.75376 20977 ft 401 kts 84°
2026-05-06 18:55 47.83425 14.79456 20724 ft 399 kts 84°
2026-05-06 18:55 47.83891 14.83518 20479 ft 397 kts 84°
2026-05-06 18:55 47.84353 14.87567 20231 ft 396 kts 84°
2026-05-06 18:55 47.84811 14.91600 19982 ft 395 kts 84°
2026-05-06 18:56 47.85263 14.95622 19695 ft 393 kts 84°
2026-05-06 18:56 47.85711 14.99624 19452 ft 390 kts 84°
2026-05-06 18:56 47.86154 15.03602 19217 ft 389 kts 84°
2026-05-06 18:56 47.86595 15.07567 18965 ft 388 kts 84°
2026-05-06 18:57 47.87035 15.11522 18739 ft 386 kts 84°
2026-05-06 18:57 47.87473 15.15462 18509 ft 386 kts 84°
2026-05-06 18:57 47.87909 15.19398 18270 ft 384 kts 84°
2026-05-06 18:57 47.88344 15.23314 18039 ft 383 kts 84°
2026-05-06 18:58 47.88775 15.27218 17777 ft 382 kts 84°
2026-05-06 18:58 47.89200 15.31106 17384 ft 378 kts 84°
2026-05-06 18:58 47.89616 15.34967 16843 ft 376 kts 84°
2026-05-06 18:58 47.89982 15.38800 16487 ft 373 kts 86°
2026-05-06 18:59 47.90290 15.42633 16221 ft 372 kts 86°
2026-05-06 18:59 47.90570 15.46484 15971 ft 375 kts 86°
2026-05-06 18:59 47.90840 15.50319 15714 ft 370 kts 87°
2026-05-06 18:59 47.91108 15.54131 15463 ft 370 kts 88°
2026-05-06 19:00 47.91379 15.57953 15212 ft 369 kts 87°
2026-05-06 19:00 47.91652 15.61735 14972 ft 365 kts 86°
2026-05-06 19:00 47.91930 15.65504 14729 ft 367 kts 88°
2026-05-06 19:00 47.92116 15.68016 14568 ft 367 kts 87°
2026-05-06 19:01 47.92491 15.73042 14243 ft 363 kts 87°
2026-05-06 19:01 47.92768 15.76782 14004 ft 366 kts 87°
2026-05-06 19:01 47.93041 15.80530 13766 ft 361 kts 85°
2026-05-06 19:01 47.93307 15.84231 13531 ft 359 kts 86°
2026-05-06 19:02 47.93572 15.87935 13254 ft 359 kts 86°
2026-05-06 19:02 47.93835 15.91609 12992 ft 353 kts 86°
2026-05-06 19:02 47.94095 15.95238 12778 ft 351 kts 87°
2026-05-06 19:02 47.94355 15.98854 12532 ft 350 kts 86°
2026-05-06 19:03 47.94614 16.02456 12268 ft 348 kts 86°
2026-05-06 19:03 47.94867 16.06039 12018 ft 347 kts 87°
2026-05-06 19:03 47.95116 16.09596 11791 ft 342 kts 86°
2026-05-06 19:03 47.95362 16.13102 11742 ft 339 kts 86°
2026-05-06 19:04 47.95608 16.16603 11759 ft 340 kts 87°
2026-05-06 19:04 47.95851 16.20110 11759 ft 339 kts 86°
2026-05-06 19:04 47.96091 16.23612 11762 ft 339 kts 86°
2026-05-06 19:04 47.96329 16.27114 11760 ft 339 kts 86°
2026-05-06 19:05 47.96567 16.30620 11764 ft 340 kts 87°
2026-05-06 19:05 47.96803 16.34127 11757 ft 341 kts 88°
2026-05-06 19:05 47.97040 16.37667 11768 ft 344 kts 88°
2026-05-06 19:05 47.97280 16.41223 11768 ft 344 kts 87°
2026-05-06 19:06 47.97520 16.44782 11629 ft 345 kts 87°
2026-05-06 19:06 47.97757 16.48327 11387 ft 340 kts 88°
2026-05-06 19:06 47.97988 16.51750 11135 ft 320 kts 88°
2026-05-06 19:06 47.98206 16.54947 10892 ft 299 kts 88°
2026-05-06 19:07 47.98408 16.57954 10651 ft 287 kts 88°
2026-05-06 19:07 47.98535 16.59904 10490 ft 284 kts 88°
2026-05-06 19:07 47.99059 16.63741 10167 ft 283 kts 73°
2026-05-06 19:07 47.99850 16.66425 10017 ft 283 kts 63°
2026-05-06 19:08 48.00904 16.68913 10002 ft 284 kts 54°
2026-05-06 19:08 48.02191 16.71158 10000 ft 285 kts 45°
2026-05-06 19:08 48.03695 16.73080 10006 ft 284 kts 34°
2026-05-06 19:08 48.05381 16.74611 10000 ft 284 kts 26°
2026-05-06 19:09 48.07002 16.76283 10002 ft 285 kts 47°
2026-05-06 19:09 48.07993 16.78745 10017 ft 269 kts 72°
2026-05-06 19:09 48.08596 16.81301 10009 ft 253 kts 75°
2026-05-06 19:09 48.09133 16.83735 9851 ft 240 kts 76°
2026-05-06 19:10 48.09647 16.86068 9527 ft 234 kts 76°
2026-05-06 19:10 48.10155 16.88373 9279 ft 232 kts 76°
2026-05-06 19:10 48.10673 16.90659 9006 ft 232 kts 71°
2026-05-06 19:10 48.11598 16.92639 8723 ft 235 kts 46°
2026-05-06 19:11 48.12879 16.94141 8458 ft 234 kts 24°
2026-05-06 19:11 48.14432 16.94704 8162 ft 228 kts 353°
2026-05-06 19:11 48.15912 16.94172 8023 ft 215 kts 324°
2026-05-06 19:11 48.17033 16.92805 8020 ft 204 kts 299°
2026-05-06 19:12 48.17647 16.90978 8022 ft 194 kts 278°
2026-05-06 19:12 48.18007 16.89029 8020 ft 194 kts 278°
2026-05-06 19:12 48.18374 16.87074 7922 ft 195 kts 278°
2026-05-06 19:12 48.18743 16.85129 7795 ft 194 kts 278°
2026-05-06 19:13 48.19112 16.83187 7670 ft 193 kts 278°
2026-05-06 19:13 48.19477 16.81252 7545 ft 193 kts 278°
2026-05-06 19:13 48.19842 16.79315 7418 ft 193 kts 278°
2026-05-06 19:13 48.20204 16.77386 7304 ft 192 kts 278°
2026-05-06 19:14 48.20564 16.75457 7177 ft 192 kts 278°
2026-05-06 19:14 48.20926 16.73534 7056 ft 192 kts 279°
2026-05-06 19:14 48.21230 16.72280 6974 ft 195 kts 285°
2026-05-06 19:14 48.21851 16.70454 6860 ft 199 kts 294°
2026-05-06 19:15 48.22663 16.68759 6730 ft 202 kts 302°
2026-05-06 19:15 48.23655 16.67238 6612 ft 206 kts 311°
2026-05-06 19:15 48.24828 16.65925 6489 ft 210 kts 320°
2026-05-06 19:15 48.26117 16.64920 6368 ft 214 kts 330°
2026-05-06 19:16 48.27553 16.64209 6254 ft 222 kts 338°
2026-05-06 19:16 48.29125 16.63552 6141 ft 237 kts 338°
2026-05-06 19:16 48.30721 16.62878 6031 ft 239 kts 338°
2026-05-06 19:16 48.32300 16.62213 5994 ft 239 kts 339°
2026-05-06 19:17 48.33898 16.61539 5995 ft 239 kts 339°
2026-05-06 19:17 48.35468 16.60880 5890 ft 230 kts 339°
2026-05-06 19:17 48.36979 16.60247 5759 ft 221 kts 339°
2026-05-06 19:17 48.38440 16.59636 5621 ft 217 kts 338°
2026-05-06 19:18 48.39896 16.59022 5509 ft 216 kts 338°
2026-05-06 19:18 48.41340 16.58411 5389 ft 215 kts 339°
2026-05-06 19:18 48.42757 16.57813 5270 ft 208 kts 339°
2026-05-06 19:18 48.44136 16.57231 5149 ft 204 kts 340°
2026-05-06 19:19 48.45498 16.56654 5049 ft 203 kts 340°
2026-05-06 19:19 48.46831 16.55984 4973 ft 198 kts 324°
2026-05-06 19:19 48.47843 16.54643 4977 ft 192 kts 301°
2026-05-06 19:19 48.48249 16.52837 4980 ft 180 kts 265°
2026-05-06 19:20 48.48105 16.50967 4983 ft 180 kts 254°
2026-05-06 19:20 48.47502 16.49372 4985 ft 177 kts 219°
2026-05-06 19:20 48.46374 16.48616 4981 ft 180 kts 199°
2026-05-06 19:20 48.45152 16.48167 4982 ft 182 kts 195°
2026-05-06 19:21 48.43916 16.47740 4988 ft 182 kts 196°
2026-05-06 19:21 48.42681 16.47335 4983 ft 181 kts 195°
2026-05-06 19:21 48.41449 16.46932 4981 ft 181 kts 195°
2026-05-06 19:21 48.40214 16.46523 4985 ft 181 kts 195°
2026-05-06 19:22 48.38949 16.46395 4987 ft 188 kts 172°
2026-05-06 19:22 48.37678 16.46913 4988 ft 189 kts 170°
2026-05-06 19:22 48.36405 16.47434 4987 ft 190 kts 169°
2026-05-06 19:22 48.35132 16.47969 4989 ft 190 kts 169°
2026-05-06 19:23 48.33858 16.48511 4916 ft 190 kts 169°
2026-05-06 19:23 48.32587 16.49054 4716 ft 189 kts 170°
2026-05-06 19:23 48.31327 16.49592 4489 ft 188 kts 171°
2026-05-06 19:23 48.30076 16.50126 4242 ft 186 kts 171°
2026-05-06 19:24 48.28832 16.50656 3992 ft 186 kts 170°
2026-05-06 19:24 48.27594 16.51183 3754 ft 184 kts 171°
2026-05-06 19:24 48.26362 16.51708 3496 ft 183 kts 171°
2026-05-06 19:24 48.25147 16.52227 3271 ft 177 kts 171°
2026-05-06 19:25 48.24001 16.52717 3035 ft 166 kts 172°
2026-05-06 19:25 48.22903 16.53183 2814 ft 163 kts 171°
2026-05-06 19:25 48.21825 16.53640 2598 ft 160 kts 171°
2026-05-06 19:25 48.20760 16.54092 2393 ft 158 kts 170°
2026-05-06 19:26 48.19711 16.54537 2195 ft 156 kts 170°
2026-05-06 19:26 48.18681 16.54972 1967 ft 146 kts 171°
2026-05-06 19:26 48.17799 16.55365 1846 ft 123 kts 170°
2026-05-06 19:26 48.17004 16.55722 1702 ft 116 kts 171°
2026-05-06 19:27 48.16233 16.56027 1559 ft 114 kts 169°
2026-05-06 19:27 48.15463 16.56302 1418 ft 114 kts 171°
2026-05-06 19:27 48.14703 16.56635 1161 ft 114 kts 166°
2026-05-06 19:27 48.13947 16.56963 1034 ft 113 kts 165°
2026-05-06 19:28 48.13198 16.57299 914 ft 112 kts 165°
2026-05-06 19:28 48.12443 16.57620 742 ft 113 kts 165°
2026-05-06 19:28 48.11694 16.57934 628 ft 110 kts 165°
2026-05-06 19:28 48.11088 16.58193 616 ft 72 kts 164°
2026-05-06 19:29 48.10750 16.58289 610 ft 32 kts 185°
2026-05-06 19:29 48.10627 16.58252 613 ft 12 kts 193°
2026-05-06 19:29 48.10541 16.58220 610 ft 10 kts 195°
2026-05-06 19:29 48.10515 16.58210 610 ft 0 kts 194°
2026-05-06 19:32 48.10514 16.58210 610 ft 2 kts 194°
2026-05-06 19:32 48.10506 16.58171 615 ft 6 kts 305°
2026-05-06 19:32 48.10549 16.58143 612 ft 8 kts 343°
2026-05-06 19:32 48.10601 16.58122 624 ft 8 kts 346°
2026-05-06 19:33 48.10655 16.58102 610 ft 8 kts 346°
2026-05-06 19:33 48.10721 16.58074 621 ft 12 kts 342°
2026-05-06 19:33 48.10808 16.58034 613 ft 13 kts 343°
2026-05-06 19:33 48.10896 16.57993 620 ft 13 kts 343°
2026-05-06 19:34 48.10942 16.57974 621 ft 0 kts 345°
2026-05-06 19:34 48.10968 16.57965 620 ft 7 kts 347°
2026-05-06 19:34 48.11025 16.57942 615 ft 9 kts 345°
2026-05-06 19:35 48.11090 16.57905 615 ft 12 kts 322°
2026-05-06 19:35 48.11131 16.57795 616 ft 12 kts 295°
2026-05-06 19:35 48.11170 16.57678 613 ft 13 kts 296°
2026-05-06 19:35 48.11209 16.57558 617 ft 13 kts 296°
2026-05-06 19:36 48.11250 16.57432 614 ft 14 kts 296°
2026-05-06 19:36 48.11313 16.57335 612 ft 14 kts
2026-05-06 19:36 48.11393 16.57387 618 ft 10 kts 17°
2026-05-06 19:36 48.11446 16.57327 612 ft 8 kts 297°
2026-05-06 19:37 48.11436 16.57282 620 ft 5 kts 198°
2026-05-06 19:37 48.11407 16.57262 618 ft 5 kts 204°
2026-05-06 19:37 48.11391 16.57251 614 ft 0 kts 207°
2026-05-06 19:37 48.11387 16.57248 612 ft 1 kts 207°
2026-05-06 19:38 48.11386 16.57247 612 ft 0 kts 207°